LNKUK ENRI-ENGM

Flight info

Callsign LNKUK
Flight time 0h 49m
Altitude 21000
Route GAASOYA IFR MES
Aircraft SF50/L-SDGRWY/L

Departure

Time 2026-05-06 17:51
Airport Ringebu Airfield Frya (ENRI)

Arrival

Time 2026-05-06 18:41
Airport Oslo-Gardermoen International Airport (ENGM)
Time Latitude Longitude Altitude Speed Heading
2026-05-06 17:43 61.54496 10.06244 547 ft 0 kts 54°
2026-05-06 17:46 61.54506 10.06283 546 ft 0 kts 345°
2026-05-06 17:46 61.54519 10.06292 546 ft 4 kts 16°
2026-05-06 17:46 61.54532 10.06296 546 ft 3 kts
2026-05-06 17:47 61.54539 10.06296 546 ft 4 kts 353°
2026-05-06 17:47 61.54548 10.06285 546 ft 3 kts 294°
2026-05-06 17:47 61.54558 10.06205 546 ft 12 kts 283°
2026-05-06 17:48 61.54573 10.06055 547 ft 8 kts 281°
2026-05-06 17:48 61.54581 10.05964 548 ft 7 kts 278°
2026-05-06 17:48 61.54587 10.05867 549 ft 6 kts 285°
2026-05-06 17:48 61.54592 10.05825 550 ft 0 kts 292°
2026-05-06 17:49 61.54594 10.05799 550 ft 2 kts 278°
2026-05-06 17:49 61.54599 10.05735 550 ft 6 kts 274°
2026-05-06 17:49 61.54599 10.05677 550 ft 2 kts 296°
2026-05-06 17:49 61.54604 10.05673 549 ft 2 kts 78°
2026-05-06 17:50 61.54603 10.05699 549 ft 0 kts 99°
2026-05-06 17:51 61.54185 10.08487 1121 ft 112 kts 119°
2026-05-06 17:51 61.53772 10.09929 1621 ft 125 kts 120°
2026-05-06 17:51 61.53264 10.11510 2246 ft 134 kts 125°
2026-05-06 17:52 61.52677 10.13057 2887 ft 142 kts 133°
2026-05-06 17:52 61.51833 10.14204 3559 ft 150 kts 162°
2026-05-06 17:52 61.50940 10.14783 4245 ft 150 kts 165°
2026-05-06 17:52 61.49907 10.15347 4768 ft 169 kts 166°
2026-05-06 17:53 61.48709 10.15999 5428 ft 178 kts 167°
2026-05-06 17:53 61.47532 10.16641 6277 ft 176 kts 167°
2026-05-06 17:53 61.46798 10.17040 6774 ft 176 kts 167°
2026-05-06 17:53 61.45617 10.17682 7538 ft 177 kts 167°
2026-05-06 17:54 61.44451 10.18315 8261 ft 179 kts 167°
2026-05-06 17:54 61.43212 10.18984 8782 ft 193 kts 167°
2026-05-06 17:54 61.41794 10.19734 8870 ft 226 kts 167°
2026-05-06 17:54 61.40163 10.20653 8863 ft 255 kts 158°
2026-05-06 17:55 61.38589 10.22697 8873 ft 274 kts 148°
2026-05-06 17:55 61.37009 10.24963 8867 ft 277 kts 146°
2026-05-06 17:55 61.35430 10.27279 8861 ft 274 kts 145°
2026-05-06 17:55 61.33351 10.30331 8855 ft 272 kts 145°
2026-05-06 17:56 61.32402 10.31721 8854 ft 271 kts 145°
2026-05-06 17:56 61.30892 10.33932 8859 ft 275 kts 146°
2026-05-06 17:56 61.29329 10.36215 8859 ft 279 kts 146°
2026-05-06 17:56 61.27739 10.38539 8856 ft 281 kts 146°
2026-05-06 17:57 61.26122 10.40897 8854 ft 282 kts 146°
2026-05-06 17:57 61.24530 10.43214 8851 ft 280 kts 146°
2026-05-06 17:57 61.22932 10.45543 8850 ft 278 kts 146°
2026-05-06 17:57 61.21354 10.47833 8848 ft 276 kts 146°
2026-05-06 17:58 61.19810 10.50076 8851 ft 275 kts 146°
2026-05-06 17:58 61.18287 10.52283 8854 ft 276 kts 146°
2026-05-06 17:58 61.16724 10.54543 8859 ft 277 kts 146°
2026-05-06 17:58 61.15136 10.56838 8862 ft 277 kts 146°
2026-05-06 17:59 61.13563 10.59113 8869 ft 278 kts 146°
2026-05-06 17:59 61.11974 10.61403 8870 ft 278 kts 146°
2026-05-06 17:59 61.10383 10.63692 8871 ft 278 kts 146°
2026-05-06 17:59 61.08706 10.65271 8860 ft 276 kts 175°
2026-05-06 18:00 61.06337 10.63806 8873 ft 270 kts 221°
2026-05-06 18:00 61.05563 10.61802 8877 ft 268 kts 244°
2026-05-06 18:00 61.05262 10.58180 8881 ft 266 kts 277°
2026-05-06 18:00 61.06031 10.54774 8883 ft 267 kts 312°
2026-05-06 18:01 61.07604 10.52891 8889 ft 271 kts 345°
2026-05-06 18:01 61.09502 10.52830 8887 ft 272 kts
2026-05-06 18:01 61.11229 10.54343 8874 ft 277 kts 40°
2026-05-06 18:01 61.12233 10.57732 8868 ft 280 kts 75°
2026-05-06 18:02 61.12160 10.61723 8865 ft 281 kts 109°
2026-05-06 18:02 61.11034 10.64949 8865 ft 279 kts 144°
2026-05-06 18:02 61.09243 10.66325 8875 ft 274 kts 176°
2026-05-06 18:02 61.07355 10.67048 8892 ft 274 kts 169°
2026-05-06 18:03 61.05620 10.68058 8886 ft 275 kts 165°
2026-05-06 18:03 61.03801 10.69305 8893 ft 275 kts 162°
2026-05-06 18:03 61.01977 10.70655 8896 ft 274 kts 162°
2026-05-06 18:03 61.00227 10.71984 8894 ft 273 kts 161°
2026-05-06 18:04 60.98461 10.73350 8888 ft 271 kts 161°
2026-05-06 18:04 60.96693 10.74724 8893 ft 269 kts 162°
2026-05-06 18:04 60.94917 10.76112 8911 ft 270 kts 162°
2026-05-06 18:04 60.93225 10.77444 8910 ft 272 kts 160°
2026-05-06 18:05 60.91443 10.78902 8904 ft 274 kts 160°
2026-05-06 18:05 60.89746 10.80308 8911 ft 275 kts 161°
2026-05-06 18:05 60.87937 10.81807 8904 ft 276 kts 159°
2026-05-06 18:05 60.86157 10.83264 8895 ft 276 kts 159°
2026-05-06 18:06 60.84352 10.84747 8900 ft 275 kts 160°
2026-05-06 18:06 60.82574 10.86214 8906 ft 275 kts 160°
2026-05-06 18:06 60.80809 10.87660 8910 ft 276 kts 159°
2026-05-06 18:06 60.79031 10.89121 8927 ft 277 kts 160°
2026-05-06 18:07 60.77241 10.90586 8887 ft 277 kts 160°
2026-05-06 18:07 60.75497 10.91997 8902 ft 276 kts 159°
2026-05-06 18:07 60.73693 10.93487 8874 ft 279 kts 159°
2026-05-06 18:07 60.71979 10.94884 8635 ft 274 kts 159°
2026-05-06 18:08 60.70226 10.96311 8368 ft 270 kts 160°
2026-05-06 18:08 60.68594 10.97639 8130 ft 267 kts 159°
2026-05-06 18:08 60.66851 10.99053 7881 ft 265 kts 159°
2026-05-06 18:08 60.65208 11.00392 7630 ft 264 kts 160°
2026-05-06 18:09 60.63531 11.01750 7372 ft 263 kts 160°
2026-05-06 18:09 60.61894 11.03079 7123 ft 262 kts 160°
2026-05-06 18:09 60.60336 11.04341 6883 ft 262 kts 160°
2026-05-06 18:09 60.58684 11.05676 6629 ft 262 kts 160°
2026-05-06 18:10 60.57088 11.06963 6385 ft 261 kts 160°
2026-05-06 18:10 60.55387 11.08337 6125 ft 261 kts 160°
2026-05-06 18:10 60.53696 11.09702 5866 ft 261 kts 160°
2026-05-06 18:10 60.52059 11.11019 5612 ft 260 kts 160°
2026-05-06 18:11 60.50359 11.12392 5353 ft 260 kts 160°
2026-05-06 18:11 60.48717 11.13704 5102 ft 260 kts 160°
2026-05-06 18:11 60.47038 11.15051 4994 ft 255 kts 160°
2026-05-06 18:11 60.45499 11.16286 4976 ft 249 kts 159°
2026-05-06 18:12 60.44023 11.17466 4933 ft 245 kts 160°
2026-05-06 18:12 60.42458 11.18720 4668 ft 230 kts 160°
2026-05-06 18:12 60.41126 11.19760 4408 ft 211 kts 165°
2026-05-06 18:12 60.39813 11.19614 4186 ft 212 kts 195°
2026-05-06 18:13 60.38404 11.18715 4005 ft 209 kts 201°
2026-05-06 18:13 60.37074 11.18066 3856 ft 197 kts 198°
2026-05-06 18:13 60.35827 11.17387 3809 ft 186 kts 198°
2026-05-06 18:13 60.34620 11.16700 3501 ft 184 kts 198°
2026-05-06 18:14 60.33395 11.15993 3212 ft 178 kts 198°
2026-05-06 18:14 60.32255 11.15335 2938 ft 161 kts 199°
2026-05-06 18:14 60.31130 11.14681 2699 ft 169 kts 199°
2026-05-06 18:14 60.30074 11.14065 2468 ft 167 kts 199°
2026-05-06 18:15 60.29111 11.13514 2520 ft 136 kts 198°
2026-05-06 18:15 60.28300 11.13048 2253 ft 126 kts 199°
2026-05-06 18:15 60.27482 11.12565 2004 ft 123 kts 201°
2026-05-06 18:15 60.26645 11.12072 1783 ft 123 kts 199°
2026-05-06 18:16 60.25970 11.11687 1628 ft 104 kts 199°
2026-05-06 18:16 60.25338 11.11320 1483 ft 94 kts 199°
2026-05-06 18:16 60.24761 11.10986 1323 ft 85 kts 198°
2026-05-06 18:16 60.24168 11.10672 1228 ft 88 kts 195°
2026-05-06 18:17 60.23545 11.10329 1086 ft 94 kts 200°
2026-05-06 18:17 60.22918 11.09934 1019 ft 91 kts 198°
2026-05-06 18:17 60.22311 11.09607 933 ft 91 kts 200°
2026-05-06 18:17 60.21708 11.09233 770 ft 92 kts 202°
2026-05-06 18:18 60.21124 11.08886 684 ft 80 kts 197°
2026-05-06 18:18 60.20481 11.08518 912 ft 108 kts 201°
2026-05-06 18:18 60.19709 11.08054 1447 ft 123 kts 195°
2026-05-06 18:18 60.18950 11.07629 2047 ft 129 kts 199°
2026-05-06 18:19 60.17987 11.07076 2512 ft 157 kts 198°
2026-05-06 18:19 60.17007 11.06125 3306 ft 160 kts 219°
2026-05-06 18:19 60.16167 11.04689 4173 ft 160 kts 225°
2026-05-06 18:19 60.15383 11.03133 4987 ft 162 kts 227°
2026-05-06 18:20 60.14646 11.01573 5736 ft 165 kts 229°
2026-05-06 18:20 60.13831 10.99779 5960 ft 199 kts 230°
2026-05-06 18:20 60.12884 10.97670 5994 ft 229 kts 229°
2026-05-06 18:20 60.11762 10.95160 5990 ft 253 kts 229°
2026-05-06 18:21 60.10553 10.92444 5983 ft 267 kts 229°
2026-05-06 18:21 60.09292 10.89612 5996 ft 263 kts 229°
2026-05-06 18:21 60.08141 10.87029 5961 ft 247 kts 229°
2026-05-06 18:21 60.07011 10.84490 5980 ft 248 kts 230°
2026-05-06 18:22 60.05907 10.82005 5973 ft 249 kts 230°
2026-05-06 18:22 60.04828 10.79580 5973 ft 248 kts 230°
2026-05-06 18:22 60.03796 10.76792 5932 ft 247 kts 251°
2026-05-06 18:22 60.03829 10.73430 5965 ft 246 kts 289°
2026-05-06 18:23 60.04763 10.70563 5983 ft 247 kts 304°
2026-05-06 18:23 60.05712 10.67988 5976 ft 248 kts 305°
2026-05-06 18:23 60.06755 10.65160 5967 ft 248 kts 305°
2026-05-06 18:23 60.07777 10.62390 5972 ft 248 kts 305°
2026-05-06 18:24 60.08750 10.59737 5970 ft 249 kts 305°
2026-05-06 18:24 60.09741 10.57039 5967 ft 249 kts 305°
2026-05-06 18:24 60.10750 10.54286 5965 ft 249 kts 306°
2026-05-06 18:24 60.11678 10.51737 5963 ft 249 kts 306°
2026-05-06 18:25 60.12590 10.49236 5961 ft 249 kts 306°
2026-05-06 18:25 60.13641 10.46610 5940 ft 251 kts 319°
2026-05-06 18:25 60.15212 10.45513 5960 ft 256 kts 355°
2026-05-06 18:25 60.16944 10.45312 5964 ft 255 kts 356°
2026-05-06 18:26 60.18650 10.45125 5959 ft 256 kts 355°
2026-05-06 18:26 60.20446 10.44938 5958 ft 256 kts 355°
2026-05-06 18:26 60.22223 10.44763 5955 ft 256 kts 355°
2026-05-06 18:26 60.23922 10.44589 5956 ft 255 kts 355°
2026-05-06 18:27 60.25644 10.44408 5958 ft 255 kts 355°
2026-05-06 18:27 60.27428 10.44217 5956 ft 255 kts 355°
2026-05-06 18:27 60.29194 10.44020 5957 ft 255 kts 355°
2026-05-06 18:27 60.30875 10.43835 5960 ft 254 kts 355°
2026-05-06 18:28 60.32637 10.43641 5959 ft 254 kts 355°
2026-05-06 18:28 60.34403 10.43437 5961 ft 254 kts 355°
2026-05-06 18:28 60.36173 10.43231 5961 ft 255 kts 355°
2026-05-06 18:28 60.37926 10.43033 5960 ft 255 kts 355°
2026-05-06 18:29 60.39688 10.42831 5960 ft 255 kts 355°
2026-05-06 18:29 60.41414 10.43470 5958 ft 259 kts 30°
2026-05-06 18:29 60.42656 10.46142 5800 ft 260 kts 56°
2026-05-06 18:29 60.43646 10.49130 5526 ft 252 kts 56°
2026-05-06 18:30 60.44606 10.52080 5262 ft 247 kts 55°
2026-05-06 18:30 60.45492 10.54802 5016 ft 244 kts 55°
2026-05-06 18:30 60.46360 10.57475 4772 ft 242 kts 55°
2026-05-06 18:30 60.47263 10.60255 4512 ft 232 kts 55°
2026-05-06 18:31 60.48148 10.62980 4232 ft 230 kts 55°
2026-05-06 18:31 60.49039 10.65734 4012 ft 235 kts 55°
2026-05-06 18:31 60.49617 10.68751 3986 ft 233 kts 77°
2026-05-06 18:31 60.50007 10.71983 3958 ft 233 kts 75°
2026-05-06 18:32 60.50398 10.75242 3957 ft 237 kts 75°
2026-05-06 18:32 60.50776 10.78409 3963 ft 239 kts 75°
2026-05-06 18:32 60.51167 10.81660 3961 ft 241 kts 75°
2026-05-06 18:32 60.51478 10.84807 3943 ft 243 kts 89°
2026-05-06 18:33 60.51093 10.88152 3960 ft 242 kts 103°
2026-05-06 18:33 60.50652 10.91412 3965 ft 239 kts 105°
2026-05-06 18:33 60.50213 10.94631 3971 ft 237 kts 105°
2026-05-06 18:33 60.49779 10.97753 3962 ft 236 kts 105°
2026-05-06 18:34 60.49327 11.00951 3971 ft 234 kts 105°
2026-05-06 18:34 60.48885 11.04161 3968 ft 235 kts 105°
2026-05-06 18:34 60.48450 11.07364 3972 ft 237 kts 105°
2026-05-06 18:34 60.48028 11.10471 3972 ft 237 kts 105°
2026-05-06 18:35 60.47591 11.13689 3970 ft 237 kts 105°
2026-05-06 18:35 60.47135 11.16897 3972 ft 236 kts 109°
2026-05-06 18:35 60.46054 11.19271 3972 ft 235 kts 155°
2026-05-06 18:35 60.44498 11.19691 3987 ft 231 kts 186°
2026-05-06 18:36 60.42889 11.19516 3972 ft 231 kts 185°
2026-05-06 18:36 60.41299 11.19696 3962 ft 231 kts 184°
2026-05-06 18:36 60.39718 11.19316 3976 ft 229 kts 192°
2026-05-06 18:36 60.38159 11.18637 3974 ft 229 kts 195°
2026-05-06 18:37 60.36605 11.17820 3762 ft 221 kts 197°
2026-05-06 18:37 60.35243 11.17063 3635 ft 185 kts 197°
2026-05-06 18:37 60.33998 11.16342 3351 ft 188 kts 198°
2026-05-06 18:37 60.32734 11.15610 3059 ft 191 kts 198°
2026-05-06 18:38 60.31455 11.14871 2778 ft 191 kts 198°
2026-05-06 18:38 60.30242 11.14170 2638 ft 152 kts 198°
2026-05-06 18:38 60.29273 11.13604 2414 ft 153 kts 199°
2026-05-06 18:38 60.28238 11.12999 2128 ft 162 kts 198°
2026-05-06 18:39 60.27071 11.12323 1864 ft 172 kts 198°
2026-05-06 18:39 60.25925 11.11662 1620 ft 171 kts 198°
2026-05-06 18:39 60.24795 11.11010 1364 ft 166 kts 197°
2026-05-06 18:40 60.23196 11.10131 1045 ft 99 kts 201°
2026-05-06 18:40 60.22562 11.09734 912 ft 96 kts 200°
2026-05-06 18:40 60.21930 11.09355 788 ft 93 kts 200°
2026-05-06 18:40 60.21311 11.09004 684 ft 89 kts 197°
2026-05-06 18:41 60.20812 11.08705 683 ft 42 kts 196°
2026-05-06 18:41 60.20686 11.08555 683 ft 16 kts 245°
2026-05-06 18:41 60.20622 11.08281 683 ft 15 kts 243°
2026-05-06 18:41 60.20568 11.08104 683 ft 14 kts 242°
2026-05-06 18:42 60.20544 11.08039 683 ft 0 kts 110°
2026-05-06 18:42 60.20529 11.08014 683 ft 11 kts 208°
2026-05-06 18:42 60.20325 11.07895 683 ft 49 kts 195°
2026-05-06 18:43 60.20005 11.07754 683 ft 13 kts 207°
2026-05-06 18:43 60.19990 11.07701 683 ft 0 kts 237°